Location: Newark
(54.6833°N, 25.2833°E)
Time: 07:28:16
(UTC+00:00)

Altair - Pass Details

Date: 16 November 2019
Orbit: 1502 x 1682 km, 47.2° (Epoch: 09 December)

Event Time Altitude Azimuth Distance (km) Brightness Sun altitude
Rises 09:28:14 0° 282° (WNW) 4,690 9.8 16.2°
Reaches altitude 10° 09:32:50 10° 263° (W) 3,733 9.6 16.3°
Maximum altitude 09:37:49 16° 230° (SW) 3,324 9.9 16.4°
Drops below altitude 10° 09:42:54 10° 198° (SSW) 3,800 11.1 16.5°
Sets 09:47:42 0° 178° (S) 4,819 11.9 16.5°
